TimePDT,TemperatureF,Dew PointF,Humidity,Sea Level PressureIn,VisibilityMPH,Wind Direction,Wind SpeedMPH,Gust SpeedMPH,PrecipitationIn,Events,Conditions,WindDirDegrees,DateUTC
12:56 AM,55.9,37.9,51,29.90,10.0,Calm,Calm,-,N/A,,Clear,0,2013-07-11 07:56:00
1:56 AM,54.0,39.0,57,29.90,10.0,Calm,Calm,-,N/A,,Clear,0,2013-07-11 08:56:00
2:56 AM,51.1,37.9,61,29.91,10.0,Calm,Calm,-,N/A,,Clear,0,2013-07-11 09:56:00
3:56 AM,51.1,37.9,61,29.92,10.0,Calm,Calm,-,N/A,,Clear,0,2013-07-11 10:56:00
4:56 AM,50.0,37.9,63,29.93,10.0,Calm,Calm,-,N/A,,Clear,0,2013-07-11 11:56:00
5:56 AM,53.1,39.9,61,29.94,10.0,West,3.5,-,N/A,,Clear,260,2013-07-11 12:56:00
6:56 AM,61.0,43.0,52,29.93,10.0,Calm,Calm,-,N/A,,Clear,0,2013-07-11 13:56:00
7:56 AM,64.0,42.1,45,29.93,10.0,West,3.5,-,N/A,,Clear,280,2013-07-11 14:56:00
8:56 AM,68.0,42.1,39,29.93,10.0,NW,4.6,-,N/A,,Clear,310,2013-07-11 15:56:00
9:56 AM,72.0,42.1,34,29.92,10.0,Variable,4.6,-,N/A,,Clear,0,2013-07-11 16:56:00
10:56 AM,73.0,41.0,31,29.91,10.0,Variable,5.8,-,N/A,,Clear,0,2013-07-11 17:56:00
11:56 AM,75.0,39.0,27,29.91,10.0,NW,8.1,-,N/A,,Clear,320,2013-07-11 18:56:00
12:56 PM,78.1,37.0,23,29.90,10.0,Variable,6.9,18.4,N/A,,Clear,0,2013-07-11 19:56:00
1:56 PM,82.9,37.0,19,29.88,10.0,NNW,10.4,19.6,N/A,,Clear,340,2013-07-11 20:56:00
2:56 PM,81.0,37.9,21,29.86,10.0,Variable,5.8,-,N/A,,Clear,0,2013-07-11 21:56:00
3:56 PM,82.9,37.9,20,29.85,10.0,NNW,15.0,20.7,N/A,,Clear,340,2013-07-11 22:56:00
4:56 PM,81.0,35.1,19,29.85,10.0,North,11.5,23.0,N/A,,Clear,350,2013-07-11 23:56:00
5:56 PM,81.0,33.1,18,29.84,10.0,NNW,12.7,20.7,N/A,,Clear,340,2013-07-12 00:56:00
6:56 PM,78.1,30.0,17,29.84,10.0,North,15.0,-,N/A,,Clear,350,2013-07-12 01:56:00
7:56 PM,73.9,33.1,22,29.86,10.0,North,10.4,-,N/A,,Clear,350,2013-07-12 02:56:00
8:56 PM,69.1,30.0,23,29.87,10.0,NNW,6.9,-,N/A,,Clear,340,2013-07-12 03:56:00
9:56 PM,63.0,28.9,28,29.90,10.0,NNE,3.5,-,N/A,,Clear,30,2013-07-12 04:56:00
10:56 PM,60.1,23.0,24,29.91,10.0,NNE,6.9,-,N/A,,Clear,30,2013-07-12 05:56:00
11:56 PM,57.9,28.0,32,29.91,10.0,NE,5.8,-,N/A,,Clear,40,2013-07-12 06:56:00